HST 1 20580U 90037B 25182.63566737 .00005059 00000-0 18616-3 0 9999 2 20580 28.4687 306.9722 0001749 250.6918 109.3488 15.25449028734897 ISS (ZARYA) 1 25544U 98067A 25183.17152840 .00005361 00000-0 10070-3 0 9993 2 25544 51.6357 232.8024 0002162 321.8485 134.2034 15.50326686517486 CXO 1 25867U 99040B 25185.30516719 .00000413 00000-0 00000+0 0 9990 2 25867 49.8723 128.9033 8393697 309.7755 0.3417 0.37806887 27168